"Pseudo-MPEC" for P12osci

Created 2026 Jul 25 5:35:09 UT using Find_Orb

Click here for an explanation of pseudo-MPECs

 
 Astrometry: 
     P12osci*0C2026 07 19.57457623 06 35.986-18 39 25.50   ~7NF5 21.22wXNEOCPF51
     P12osci 0C2026 07 19.58501523 06 36.343-18 39 25.82   ~7NF5 21.71wXNEOCPF51
     P12osci 0C2026 07 19.59546523 06 36.721-18 39 25.41   ~7NF5 21.87wXNEOCPF51

Station data:
(F51) Pan-STARRS 1, Haleakala  (N20.707234 W156.255910)  US/Hawaii.
   Observers J. Herman, T. Lowe, P. Minguez, A. Schultz, I. Smith. Measurers
   K. Chambers, T. de Boer, J. Fairlamb, H. Gao, M. Huber, C.-C. Lin, E.
   Magnier, Y. Ramanjooloo, R. Wainscoat, R. Weryk. 1.8-m Ritchey-Chrétien +
   CCD.

Orbital elements:  P12osci
   Perihelion 2026 Oct 14.804496 +/- 53.7 TT = 19:18:28.4 (JD 2461328.304496)
Epoch 2026 Jul 20.0 TT = JDT 2461241.5   Earth MOID: 0.0045   Ve: 0.0761
M 317.219872013 +/- 38              Ma: 0.0502                   AutoNEOCP
n   0.492833088 +/- 0.448           Peri.  109.120711 +/- 90
a   1.587338233 +/- 0.963           Node   334.471347 +/- 45
e   0.72395388 +/- 0.262            Incl.   11.668219 +/- 18
P   2.000/730.457d         H 20.58  G  0.15   U 12.2  SR
q 0.438178554 +/- 0.656    Q 2.736497911 +/- 47.2         (J2000 ecliptic)
From 3 observations 2026 July 19 (30.1 min); mean residual 0".13
Residuals in arcseconds: 
260719 F51  .05+  .12+    260719 F51  .10-  .24-    260719 F51  .05+  .12+    

Ephemerides (geocentric):
Date (UTC) HH   RA             Dec           delta  r     elong  mag " sig PA
---- --------  ------------   ------------  ------ ------ -----  --- --------
2026 07 25 06  23 10 14.908   -18 41 30.88  .47662 1.4112 139.2 21.0  47d 100
2026 07 25 07  23 10 16.383   -18 41 33.03  .47597 1.4107 139.2 21.0  48d 100
2026 07 25 08  23 10 17.857   -18 41 35.21  .47531 1.4103 139.2 21.0  48d 100
2026 07 25 09  23 10 19.328   -18 41 37.40  .47466 1.4098 139.3 21.0  48d 100
2026 07 25 10  23 10 20.798   -18 41 39.61  .47400 1.4094 139.3 20.9  48d 100
2026 07 25 11  23 10 22.265   -18 41 41.84  .47335 1.4089 139.3 20.9  48d 100
2026 07 25 12  23 10 23.730   -18 41 44.08  .47269 1.4084 139.4 20.9  48d 100
2026 07 25 13  23 10 25.194   -18 41 46.35  .47204 1.4080 139.4 20.9  49d 100
2026 07 25 14  23 10 26.655   -18 41 48.63  .47138 1.4075 139.4 20.9  49d 100
2026 07 25 15  23 10 28.115   -18 41 50.94  .47073 1.4071 139.5 20.9  49d 100
2026 07 25 16  23 10 29.572   -18 41 53.26  .47007 1.4066 139.5 20.9  49d 100
2026 07 25 17  23 10 31.027   -18 41 55.60  .46942 1.4062 139.5 20.9  49d 100
2026 07 25 18  23 10 32.481   -18 41 57.95  .46876 1.4057 139.6 20.9  49d 100
2026 07 25 19  23 10 33.932   -18 42 00.33  .46811 1.4052 139.6 20.9  49d 100
2026 07 25 20  23 10 35.381   -18 42 02.73  .46745 1.4048 139.6 20.9  49d 100
2026 07 25 21  23 10 36.829   -18 42 05.14  .46680 1.4043 139.7 20.9  49d 100
2026 07 25 22  23 10 38.274   -18 42 07.57  .46615 1.4039 139.7 20.9  49d 100
2026 07 25 23  23 10 39.717   -18 42 10.02  .46549 1.4034 139.7 20.9  49d 100
2026 07 26 00  23 10 41.158   -18 42 12.49  .46484 1.4029 139.8 20.9  49d 100
2026 07 26 01  23 10 42.597   -18 42 14.98  .46419 1.4025 139.8 20.9  49d 100
2026 07 26 02  23 10 44.034   -18 42 17.49  .46353 1.4020 139.8 20.9  49d 100
2026 07 26 03  23 10 45.469   -18 42 20.02  .46288 1.4016 139.8 20.9  49d 100
2026 07 26 04  23 10 46.902   -18 42 22.56  .46223 1.4011 139.9 20.9  49d 100
2026 07 26 05  23 10 48.333   -18 42 25.13  .46157 1.4006 139.9 20.9  49d 100
2026 07 26 06  23 10 49.762   -18 42 27.71  .46092 1.4002 139.9 20.9  49d 100
2026 07 26 07  23 10 51.189   -18 42 30.32  .46027 1.3997 140.0 20.9  49d 100
2026 07 26 08  23 10 52.614   -18 42 32.94  .45962 1.3993 140.0 20.9  49d 100
2026 07 26 09  23 10 54.037   -18 42 35.58  .45897 1.3988 140.0 20.9  49d 100
2026 07 26 10  23 10 55.457   -18 42 38.24  .45831 1.3983 140.1 20.9  50d 100
2026 07 26 11  23 10 56.876   -18 42 40.92  .45766 1.3979 140.1 20.8  50d 100
2026 07 26 12  23 10 58.293   -18 42 43.62  .45701 1.3974 140.1 20.8  50d 100
2026 07 26 13  23 10 59.707   -18 42 46.34  .45636 1.3969 140.2 20.8  50d 100
2026 07 26 14  23 11 01.119   -18 42 49.07  .45571 1.3965 140.2 20.8  51d 100
2026 07 26 15  23 11 02.530   -18 42 51.83  .45506 1.3960 140.2 20.8  51d 100
2026 07 26 16  23 11 03.938   -18 42 54.61  .45441 1.3956 140.3 20.8  51d 100
2026 07 26 17  23 11 05.344   -18 42 57.40  .45376 1.3951 140.3 20.8  51d 100
2026 07 26 18  23 11 06.748   -18 43 00.22  .45310 1.3946 140.3 20.8  51d 100
2026 07 26 19  23 11 08.150   -18 43 03.05  .45245 1.3942 140.4 20.8  51d 100
2026 07 26 20  23 11 09.550   -18 43 05.90  .45180 1.3937 140.4 20.8  51d 100
2026 07 26 21  23 11 10.948   -18 43 08.78  .45115 1.3933 140.4 20.8  51d 100
2026 07 26 22  23 11 12.344   -18 43 11.67  .45050 1.3928 140.5 20.8  51d 100
2026 07 26 23  23 11 13.738   -18 43 14.58  .44985 1.3923 140.5 20.8  51d 100
2026 07 27 00  23 11 15.129   -18 43 17.52  .44920 1.3919 140.5 20.8  51d 100
2026 07 27 01  23 11 16.519   -18 43 20.47  .44855 1.3914 140.6 20.8  51d 100
2026 07 27 02  23 11 17.906   -18 43 23.44  .44790 1.3909 140.6 20.8  52d 100
2026 07 27 03  23 11 19.292   -18 43 26.43  .44726 1.3905 140.6 20.8  52d 100
2026 07 27 04  23 11 20.675   -18 43 29.45  .44661 1.3900 140.6 20.8  52d 100
2026 07 27 05  23 11 22.056   -18 43 32.48  .44596 1.3895 140.7 20.8  52d 100